TimePST,TemperatureF,Dew PointF,Humidity,Sea Level PressureIn,VisibilityMPH,Wind Direction,Wind SpeedMPH,Gust SpeedMPH,PrecipitationIn,Events,Conditions,WindDirDegrees,DateUTC
12:25 AM,33.8,33.8,100,30.67,1.8,East,3.5,-,N/A,,Overcast,80,2013-01-16 08:25:00
12:29 AM,33.8,33.8,100,30.67,0.8,East,4.6,-,N/A,,Overcast,90,2013-01-16 08:29:00
12:40 AM,33.8,33.8,100,30.67,0.2,NE,4.6,-,N/A,Fog,Fog,50,2013-01-16 08:40:00
12:53 AM,33.1,33.1,100,30.68,0.2,NNE,3.5,-,N/A,Fog,Fog,20,2013-01-16 08:53:00
1:53 AM,32.0,32.0,100,30.68,0.2,NNE,3.5,-,N/A,Fog,Fog,30,2013-01-16 09:53:00
2:53 AM,30.9,30.9,100,30.68,0.2,NE,3.5,-,N/A,Fog,Light Freezing Fog,40,2013-01-16 10:53:00
3:53 AM,30.0,30.0,100,30.67,0.2,Calm,Calm,-,N/A,Fog,Light Freezing Fog,0,2013-01-16 11:53:00
4:33 AM,30.2,28.4,93,30.65,0.2,Calm,Calm,-,N/A,Fog,Light Freezing Fog,0,2013-01-16 12:33:00
4:53 AM,28.9,28.9,100,30.65,0.2,Calm,Calm,-,N/A,Fog,Light Freezing Fog,0,2013-01-16 12:53:00
5:36 AM,28.4,28.4,100,30.63,0.2,Calm,Calm,-,N/A,Fog,Light Freezing Fog,0,2013-01-16 13:36:00
5:53 AM,28.0,28.0,100,30.63,0.2,Calm,Calm,-,N/A,Fog,Light Freezing Fog,0,2013-01-16 13:53:00
6:53 AM,28.9,28.0,96,30.63,0.2,East,3.5,-,N/A,Fog,Light Freezing Fog,90,2013-01-16 14:53:00
7:53 AM,28.9,28.0,96,30.63,0.2,Calm,Calm,-,N/A,Fog,Light Freezing Fog,0,2013-01-16 15:53:00
8:18 AM,28.4,28.4,100,30.62,0.2,Calm,Calm,-,N/A,Fog,Light Freezing Fog,0,2013-01-16 16:18:00
8:53 AM,28.9,28.9,100,30.63,0.2,Calm,Calm,-,N/A,Fog,Light Freezing Fog,0,2013-01-16 16:53:00
9:17 AM,30.2,28.4,93,30.63,0.5,Calm,Calm,-,N/A,Fog,Light Freezing Fog,0,2013-01-16 17:17:00
9:30 AM,30.2,30.2,100,30.63,1.2,Calm,Calm,-,N/A,,Scattered Clouds,0,2013-01-16 17:30:00
9:41 AM,30.2,30.2,100,30.63,1.5,Calm,Calm,-,N/A,,Partly Cloudy,0,2013-01-16 17:41:00
9:53 AM,32.0,32.0,100,30.63,1.8,East,3.5,-,N/A,,Clear,90,2013-01-16 17:53:00
10:04 AM,32.0,32.0,100,30.63,2.5,East,4.6,-,N/A,,Clear,90,2013-01-16 18:04:00
10:13 AM,32.0,32.0,100,30.63,5.0,East,4.6,-,N/A,,Clear,90,2013-01-16 18:13:00
10:23 AM,32.0,32.0,100,30.63,5.0,East,3.5,-,N/A,,Partly Cloudy,100,2013-01-16 18:23:00
10:53 AM,35.1,34.0,96,30.63,5.0,Calm,Calm,-,N/A,,Clear,0,2013-01-16 18:53:00
11:53 AM,39.2,35.6,87,30.59,5.0,Calm,Calm,-,N/A,,Clear,0,2013-01-16 19:53:00
12:53 PM,43.0,35.1,74,30.58,5.0,Calm,Calm,-,N/A,,Haze,0,2013-01-16 20:53:00
1:53 PM,43.0,36.0,76,30.56,5.0,Calm,Calm,-,N/A,,Haze,0,2013-01-16 21:53:00
2:53 PM,44.1,37.0,76,30.53,5.0,Calm,Calm,-,N/A,,Haze,0,2013-01-16 22:53:00
3:53 PM,43.0,37.0,80,30.55,4.0,West,5.8,-,N/A,,Haze,260,2013-01-16 23:53:00
4:53 PM,37.9,35.1,89,30.55,4.0,Calm,Calm,-,N/A,,Clear,0,2013-01-17 00:53:00
5:53 PM,33.1,32.0,96,30.53,4.0,Calm,Calm,-,N/A,,Clear,0,2013-01-17 01:53:00
6:53 PM,30.9,30.0,96,30.53,3.0,Calm,Calm,-,N/A,,Clear,0,2013-01-17 02:53:00
7:35 PM,30.2,28.4,93,30.52,2.5,NE,3.5,-,N/A,,Clear,40,2013-01-17 03:35:00
7:44 PM,30.2,28.4,93,30.51,3.0,Calm,Calm,-,N/A,,Clear,0,2013-01-17 03:44:00
7:53 PM,30.9,30.0,96,30.52,3.0,Calm,Calm,-,N/A,,Clear,0,2013-01-17 03:53:00
8:00 PM,32.0,30.2,93,30.51,2.5,Calm,Calm,-,N/A,,Clear,0,2013-01-17 04:00:00
8:22 PM,30.2,28.4,93,30.50,3.0,NE,3.5,-,N/A,,Clear,50,2013-01-17 04:22:00
8:53 PM,30.0,30.0,100,30.50,2.0,Calm,Calm,-,N/A,,Clear,0,2013-01-17 04:53:00
9:07 PM,32.0,30.2,93,30.49,4.0,East,5.8,-,N/A,,Clear,80,2013-01-17 05:07:00
9:53 PM,30.0,30.0,100,30.50,4.0,Calm,Calm,-,N/A,,Clear,0,2013-01-17 05:53:00
10:24 PM,28.4,26.6,93,30.50,2.5,Calm,Calm,-,N/A,,Clear,0,2013-01-17 06:24:00
10:32 PM,28.4,26.6,93,30.50,3.0,Calm,Calm,-,N/A,,Clear,0,2013-01-17 06:32:00
10:47 PM,28.4,28.4,100,30.49,1.8,Calm,Calm,-,N/A,,Clear,0,2013-01-17 06:47:00
10:53 PM,28.0,26.1,92,30.50,1.8,Calm,Calm,-,N/A,,Clear,0,2013-01-17 06:53:00
11:07 PM,28.4,28.4,100,30.49,1.2,Calm,Calm,-,N/A,,Clear,0,2013-01-17 07:07:00
11:12 PM,28.4,28.4,100,30.49,2.0,ENE,3.5,-,N/A,,Clear,60,2013-01-17 07:12:00
11:23 PM,28.4,26.6,93,30.49,3.0,Calm,Calm,-,N/A,,Clear,0,2013-01-17 07:23:00
11:53 PM,30.9,30.0,96,30.49,4.0,East,4.6,-,N/A,,Clear,80,2013-01-17 07:53:00